TimeCDT,TemperatureF,Dew PointF,Humidity,Sea Level PressureIn,VisibilityMPH,Wind Direction,Wind SpeedMPH,Gust SpeedMPH,PrecipitationIn,Events,Conditions,WindDirDegrees,DateUTC
12:53 AM,55.9,51.1,84,29.61,10.0,South,33.4,41.4,N/A,,Overcast,180,2014-03-27 05:53:00
1:53 AM,55.9,52.0,87,29.60,10.0,South,27.6,39.1,N/A,,Overcast,180,2014-03-27 06:53:00
2:53 AM,57.0,52.0,83,29.59,10.0,South,28.8,36.8,N/A,,Overcast,180,2014-03-27 07:53:00
3:53 AM,57.0,53.1,87,29.55,10.0,South,32.2,39.1,N/A,,Overcast,180,2014-03-27 08:53:00
4:53 AM,57.9,53.1,84,29.54,10.0,South,27.6,39.1,N/A,,Overcast,190,2014-03-27 09:53:00
5:53 AM,57.9,53.1,84,29.55,10.0,South,25.3,38.0,N/A,,Overcast,190,2014-03-27 10:53:00
6:53 AM,57.0,53.1,87,29.59,10.0,South,23.0,31.1,N/A,,Mostly Cloudy,190,2014-03-27 11:53:00
7:03 AM,57.2,53.6,88,29.61,10.0,South,23.0,31.1,N/A,,Mostly Cloudy,190,2014-03-27 12:03:00
7:53 AM,54.0,52.0,93,29.60,10.0,South,16.1,-,N/A,,Clear,190,2014-03-27 12:53:00
8:53 AM,57.9,52.0,81,29.59,10.0,South,20.7,26.5,N/A,,Clear,190,2014-03-27 13:53:00
9:53 AM,60.1,50.0,69,29.58,10.0,SSW,25.3,32.2,0.00,,Clear,210,2014-03-27 14:53:00
10:53 AM,64.9,44.1,47,29.58,10.0,SW,24.2,32.2,N/A,,Clear,230,2014-03-27 15:53:00
11:53 AM,71.1,30.9,23,29.58,10.0,WSW,28.8,36.8,N/A,,Clear,250,2014-03-27 16:53:00
12:53 PM,73.0,30.0,20,29.58,10.0,West,21.9,31.1,N/A,,Clear,260,2014-03-27 17:53:00
1:53 PM,75.9,27.0,16,29.57,10.0,West,25.3,33.4,N/A,,Clear,260,2014-03-27 18:53:00
2:53 PM,77.0,28.0,17,29.57,9.0,West,21.9,31.1,N/A,,Mostly Cloudy,270,2014-03-27 19:53:00
3:41 PM,75.2,26.6,17,29.62,8.0,WSW,13.8,23.0,N/A,,Overcast,250,2014-03-27 20:41:00
3:53 PM,77.0,27.0,16,29.58,8.0,WSW,16.1,27.6,N/A,,Overcast,240,2014-03-27 20:53:00
4:19 PM,75.2,35.6,24,29.63,10.0,NW,17.3,25.3,N/A,,Mostly Cloudy,320,2014-03-27 21:19:00
4:53 PM,75.9,35.1,23,29.58,10.0,WNW,13.8,-,N/A,,Clear,300,2014-03-27 21:53:00
5:53 PM,73.9,37.9,27,29.60,10.0,NNW,11.5,-,N/A,,Clear,340,2014-03-27 22:53:00
6:53 PM,71.1,37.9,30,29.62,10.0,North,11.5,-,N/A,,Clear,360,2014-03-27 23:53:00
7:53 PM,64.9,39.0,39,29.65,10.0,NE,9.2,-,N/A,,Clear,40,2014-03-28 00:53:00
8:53 PM,57.0,37.9,49,29.70,10.0,NNE,9.2,-,N/A,,Clear,30,2014-03-28 01:53:00
9:53 PM,55.0,37.0,51,29.74,10.0,North,10.4,-,N/A,,Clear,10,2014-03-28 02:53:00
10:53 PM,54.0,37.0,53,29.77,10.0,North,9.2,-,N/A,,Clear,10,2014-03-28 03:53:00
11:53 PM,54.0,37.0,53,29.78,10.0,NNE,13.8,-,N/A,,Clear,30,2014-03-28 04:53:00